STARLINK-5678, 55460

Orbit data source: Space-Track

STARLINK-5678, 55460 is a payload satellite owned by SpaceX/Seattle (US) in LEO that was launched on Thu, 02 Feb 2023 UTC via an FALCON 9 launch vehicle from the Air Force Eastern Test Range (AFETR). Payload-class satellites include a variety of spacecraft equipped with specific instruments for various scientific and technological missions. These include communications satellites like Starlink; space stations such as the ISS; scientific satellites like the Hubble; Earth observation satellites from companies like Planet Labs, Umbra, and HawkEye 360; GPS; miniature CubeSats for education and research; and military/defense satellites.

Loading next visibility...
Identifier
55460, 2023-015M
Orbit
LEO
Country
Flag of USUS
Related business
Manufacturer
SpaceX/Seattle
Mission
Operational Commercial Communications
Bus & Motor
STARLINK, Unknown motor
Mass
305 kg wet, ~290 kg dry
Launch date (UTC)
2023-02-02 (4 years ago)
Launch vehicle
FALCON 9
Launch site
Air Force Eastern Test Range (AFETR)
Object type
Payload
Rocket body
Debris
Shape & HBR
Box + 1 Pan, 10.1 m
Radar Cross Section
13.562 m², Large (>1 m²)

Expand to show TLE details & history
Last TLE update: 11 hours ago

TLE from 11 hours ago
0 STARLINK-5678
1 55460U 23015M   26258.52516963 -.00000365  00000-0 -37515-5 0  9993
2 55460  43.0045 336.7426 0001383 271.9658  88.1036 15.27576021199755
Epoch: 2026-09-15T12:36Z
TLE epoch observation values (Epoch: 2026-09-15T12:36:14.656Z)
Latitude
0.00005°
Longitude
153.19172°
Altitude
482.806 km
Speed
7.626 km/s
True Right ascension
22h 26m 58s
True Declination
0° 00' 00"
Sunlit
Object was in full shadow at epoch
Visualization orbit readout
Latitude
Unknown
Longitude
Unknown
Altitude
Unknown
Speed
Unknown
Apparent Right ascension
Unknown
Apparent Declination
Unknown
Sunlit
N/A
Visualization observer readout
Local Sidereal Time
15:47:17
Azimuth
Unknown
Elevation
Unknown
Doppler factor
Unknown
Orbital elements
Apogee altitude
485.955 km
Perigee altitude
484.056 km
Semi-major axis
6,863.142 km
Eccentricity
0.00014
Inclination
43.0045°
RAAN
336.7426°
Arg. of periapsis
271.9658°
True anomaly
88.11944°
Mean anomaly
88.1036°
Eccentric anomaly
88.11152°
Mean motion
3.81732 °/min
Orbital period
94.31 mins
BSTAR
-0.0000037515
Loading maneuver chart data...
Computing Atmospheric mass density...
Loading historical data...
Loading historical data...
Loading historical data...
Loading historical data...
Loading historical data...
Loading historical data...
Loading historical data...

Documentation

Showing up to 5 results
|